Weather History for Beaufort, NC

Change the Weather History Date:

Saturday, January 26, 2013

  Actual Average Record
Temperature  
Mean Temperature 34 °F -  
Max Temperature 39 °F 55 °F 74 °F (1950)
Min Temperature 30 °F 36 °F 23 °F (1961)
Degree Days  
Heating Degree Days 30    
Moisture  
Dew Point 30 °F    
Average Humidity 83    
Maximum Humidity 89    
Minimum Humidity 75    
Precipitation  
Precipitation 0.00 in - - ()
Sea Level Pressure  
Sea Level Pressure 30.24 in    
Wind  
Wind Speed 9 mph (North)    
Max Wind Speed 12 mph    
Max Gust Speed -    
Visibility 8 miles    
Events      
Averages and records for this station are not official NWS values.
T = Trace of Precipitation, MM = Missing Value Source: NWS Daily Summary

Daily Weather History Graph

Daily Weather History Graph

Search for Another Location

Airport:

Trip Planner

Search our weather history database for the weather conditions in past years. The results will help you decide how hot, cold, wet, or windy it might be!

Date:

Astronomy

Jan. 26, 2013 Rise Set
Actual Time 7:08 AM EST 5:30 PM EST
Civil Twilight 6:41 AM EST 5:56 PM EST
Nautical Twilight 6:11 AM EST 6:27 PM EST
Astronomical Twilight 5:41 AM EST 6:57 PM EST
Moon 5:20 PM EST (1/26) 6:26 AM EST (1/26)
Length of Visible Light 11h 14m
Length of Day
10h 21m
Full, 100% of the Moon is Illuminated
Jan 26
Full
Jan 26
Full
Feb 3
Last Quarter
Feb 10
New
Feb 17
First Quarter

Hourly Weather History & Observations

Time (EST) Temp. Windchill Dew Point Humidity Pressure Visibility Wind Dir Wind Speed Gust Speed Precip Events Conditions
12:58 AM 34.0 °F 26.6 °F 30.9 °F 89% 30.13 in 8.0 mi NW 9.2 mph - N/A   Mostly Cloudy
1:58 AM 34.0 °F 26.0 °F 30.0 °F 85% 30.13 in 7.0 mi NW 10.4 mph - N/A   Overcast
2:58 AM 33.1 °F 26.1 °F 28.9 °F 85% 30.12 in 6.0 mi NW 8.1 mph - N/A   Scattered Clouds
3:58 AM 32.0 °F 23.6 °F 28.0 °F 85% 30.13 in 7.0 mi WNW 10.4 mph - N/A   Clear
4:58 AM 32.0 °F 24.8 °F 28.0 °F 85% 30.15 in 7.0 mi NW 8.1 mph - N/A   Clear
5:58 AM 30.9 °F 23.5 °F 27.0 °F 85% 30.15 in 7.0 mi NNW 8.1 mph - N/A   Clear
6:58 AM 30.9 °F 24.3 °F 28.0 °F 89% 30.17 in 6.0 mi North 6.9 mph - N/A   Mostly Cloudy
7:58 AM 30.9 °F 24.3 °F 28.0 °F 89% 30.18 in 4.0 mi North 6.9 mph - N/A   Clear
8:58 AM 33.1 °F 25.5 °F 28.9 °F 85% 30.20 in 6.0 mi North 9.2 mph - N/A   Clear
9:58 AM 37.9 °F 32.1 °F 30.9 °F 76% 30.21 in 6.0 mi NNE 8.1 mph - N/A   Haze
10:38 AM 39.2 °F 33.6 °F 33.8 °F 81% 30.23 in 4.0 mi NNE 8.1 mph - N/A   Haze
10:58 AM 39.9 °F 34.5 °F 33.1 °F 77% 30.23 in 4.0 mi North 8.1 mph - N/A   Haze
11:58 AM 39.0 °F 31.8 °F 32.0 °F 76% 30.23 in 9.0 mi North 11.5 mph - N/A   Overcast
12:23 PM 39.2 °F 32.0 °F 32.0 °F 75% 30.22 in 10.0 mi NNE 11.5 mph - N/A   Mostly Cloudy
12:58 PM 37.9 °F 31.5 °F 32.0 °F 79% 30.22 in 10.0 mi NNE 9.2 mph - N/A   Overcast
1:30 PM 37.4 °F 30.3 °F 30.2 °F 75% 30.23 in 9.0 mi North 10.4 mph - N/A   Overcast
1:58 PM 37.9 °F 30.9 °F 32.0 °F 79% 30.22 in 8.0 mi North 10.4 mph - N/A   Overcast
2:53 PM 37.4 °F 30.8 °F 30.2 °F 75% 30.22 in 8.0 mi North 9.2 mph - N/A   Overcast
2:58 PM 37.0 °F 31.0 °F 30.9 °F 79% 30.22 in 8.0 mi North 8.1 mph - N/A   Overcast
3:23 PM 35.6 °F 28.0 °F 30.2 °F 81% 30.23 in 8.0 mi North 10.4 mph - N/A   Overcast
3:58 PM 36.0 °F 29.6 °F 30.9 °F 82% 30.25 in 9.0 mi North 8.1 mph - N/A   Overcast
4:58 PM 34.0 °F 27.2 °F 30.0 °F 85% 30.26 in 7.0 mi North 8.1 mph - N/A   Overcast
5:58 PM 33.1 °F 25.5 °F 30.0 °F 89% 30.30 in 7.0 mi NNE 9.2 mph - N/A   Overcast
6:58 PM 33.1 °F 26.1 °F 30.0 °F 89% 30.32 in 8.0 mi North 8.1 mph - N/A   Overcast
7:58 PM 33.1 °F 24.4 °F 28.9 °F 85% 30.32 in 8.0 mi North 11.5 mph - N/A   Overcast
8:32 PM 33.8 °F 26.4 °F 28.4 °F 81% 30.33 in 9.0 mi NNE 9.2 mph - N/A   Overcast
8:58 PM 34.0 °F 28.8 °F 30.0 °F 85% 30.34 in 9.0 mi North 5.8 mph - N/A   Overcast
9:58 PM 34.0 °F 27.2 °F 28.9 °F 82% 30.36 in 10.0 mi NNE 8.1 mph - N/A   Overcast
10:58 PM 34.0 °F 27.2 °F 30.0 °F 85% 30.39 in 10.0 mi North 8.1 mph - N/A   Overcast
11:26 PM 33.8 °F 27.0 °F 28.4 °F 81% 30.38 in 9.0 mi North 8.1 mph - N/A   Scattered Clouds
11:58 PM 32.0 °F 24.8 °F 28.9 °F 88% 30.39 in 8.0 mi North 8.1 mph - N/A   Clear